�������l�o���
Date,Time,MP-1(��Sv/h),MP-2(��Sv/h),MP-3(��Sv/h),MP-4(��Sv/h),MP-5(��Sv/h),MP-6(��Sv/h),MP-7(��Sv/h),MP-8(��Sv/h),����,����(m/s),���J
2014/02/08,00:00,2.5,4.5,4.9,4.5,4.7,2.4,2.6,2.9,�k��,5.2,��
2014/02/08,00:10,2.5,4.5,4.9,4.5,4.7,2.4,2.6,2.9,�k��,6.0,��
2014/02/08,00:20,2.5,4.5,4.9,4.5,4.7,2.4,2.6,2.9,�k��,5.0,��
2014/02/08,00:30,2.5,4.5,4.9,4.5,4.7,2.4,2.6,2.9,�k��,5.7,��
2014/02/08,00:40,2.5,4.5,4.9,4.5,4.7,2.4,2.6,2.9,�k��,5.2,��
2014/02/08,00:50,2.5,4.5,4.9,4.5,4.7,2.4,2.6,2.9,�k��,5.0,��
2014/02/08,01:00,2.5,4.5,4.9,4.5,4.7,2.4,2.6,2.9,�k�k��,5.2,��
2014/02/08,01:10,2.5,4.5,4.9,4.5,4.7,2.4,2.6,2.9,�k�k��,5.8,��
2014/02/08,01:20,2.5,4.5,4.9,4.5,4.7,2.4,2.6,2.9,�k�k��,5.4,��
2014/02/08,01:30,2.5,4.5,4.9,4.5,4.7,2.4,2.6,2.9,�k��,5.2,��
2014/02/08,01:40,2.5,4.5,4.9,4.5,4.7,2.4,2.6,2.9,�k�k��,6.0,��
2014/02/08,01:50,2.5,4.5,4.9,4.5,4.7,2.4,2.6,2.9,�k�k��,5.5,��
2014/02/08,02:00,2.5,4.5,4.9,4.5,4.7,2.4,2.6,2.9,�k�k��,6.1,��
2014/02/08,02:10,2.5,4.5,4.9,4.5,4.7,2.4,2.6,2.9,�k�k��,6.0,��
2014/02/08,02:20,2.5,4.5,4.9,4.5,4.7,2.4,2.6,2.9,�k��,6.4,��
2014/02/08,02:30,2.5,4.5,4.9,4.5,4.7,2.4,2.6,2.9,�k��,6.0,��
2014/02/08,02:40,2.5,4.5,4.9,4.5,4.7,2.4,2.6,2.9,�k��,5.5,��
2014/02/08,02:50,2.5,4.5,4.9,4.5,4.7,2.4,2.6,2.9,�k��,6.1,��
2014/02/08,03:00,2.5,4.5,4.9,4.5,4.7,2.4,2.6,2.9,�k��,6.5,��
2014/02/08,03:10,2.5,4.5,4.9,4.5,4.7,2.4,2.6,2.9,�k��,6.1,��
2014/02/08,03:20,2.5,4.5,4.9,4.5,4.7,2.4,2.6,2.9,�k��,6.3,��
2014/02/08,03:30,2.5,4.5,4.9,4.5,4.7,2.4,2.6,2.9,�k��,6.0,��
2014/02/08,03:40,2.5,4.5,4.9,4.5,4.7,2.4,2.6,2.9,�k��,5.2,��
2014/02/08,03:50,2.5,4.5,4.9,4.5,4.7,2.4,2.6,2.9,�k��,5.4,��
2014/02/08,04:00,2.5,4.5,4.9,4.5,4.7,2.4,2.6,2.9,�k��,4.9,��
2014/02/08,04:10,2.5,4.5,4.9,4.5,4.7,2.4,2.6,2.9,�k��,6.0,��
2014/02/08,04:20,2.5,4.5,4.9,4.5,4.7,2.4,2.6,2.9,�k��,5.7,��
2014/02/08,04:30,2.5,4.5,4.9,4.5,4.7,2.4,2.6,2.9,�k��,6.3,��
2014/02/08,04:40,2.5,4.5,4.9,4.5,4.7,2.4,2.6,2.9,�k��,5.1,��
2014/02/08,04:50,2.5,4.5,4.9,4.5,4.7,2.4,2.6,2.9,�k��,5.8,��
2014/02/08,05:00,2.5,4.5,4.9,4.5,4.7,2.4,2.6,2.9,�k��,5.7,��
2014/02/08,05:10,2.5,4.5,4.9,4.5,4.7,2.4,2.6,2.9,�k��,5.1,��
2014/02/08,05:20,2.5,4.5,4.9,4.5,4.7,2.4,2.6,2.9,�k��,5.4,��
2014/02/08,05:30,2.5,4.5,4.9,4.5,4.7,2.4,2.6,2.9,�k��,5.7,��
2014/02/08,05:40,2.5,4.5,4.9,4.5,4.7,2.4,2.6,2.9,�k��,6.0,��
2014/02/08,05:50,2.5,4.5,4.9,4.5,4.7,2.4,2.6,2.9,�k��,5.3,��
2014/02/08,06:00,2.5,4.5,4.9,4.5,4.7,2.4,2.6,2.9,�k��,5.6,��
2014/02/08,06:10,2.5,4.5,4.9,4.5,4.7,2.4,2.6,2.9,�k�k��,5.2,��
2014/02/08,06:20,2.5,4.5,4.9,4.5,4.7,2.4,2.6,2.9,�k�k��,6.1,��
2014/02/08,06:30,2.5,4.5,4.9,4.5,4.7,2.4,2.6,2.9,�k�k��,6.0,��
2014/02/08,06:40,2.5,4.5,4.9,4.5,4.7,2.4,2.6,2.9,�k�k��,5.4,�L
2014/02/08,06:50,2.5,4.5,4.9,4.5,4.7,2.4,2.6,2.9,�k�k��,5.4,�L
2014/02/08,07:00,2.5,4.5,4.9,4.5,4.7,2.4,2.6,2.9,�k�k��,5.6,�L
2014/02/08,07:10,2.5,4.5,4.9,4.5,4.7,2.4,2.6,2.9,�k�k��,5.7,�L
2014/02/08,07:20,2.5,4.4,4.9,4.5,4.7,2.4,2.6,2.9,�k�k��,7.1,�L
2014/02/08,07:30,2.5,4.4,4.9,4.5,4.7,2.4,2.6,2.9,�k�k��,5.7,�L
2014/02/08,07:40,2.5,4.4,4.8,4.5,4.7,2.4,2.6,2.9,�k�k��,6.7,�L
2014/02/08,07:50,2.5,4.4,4.8,4.5,4.6,2.4,2.6,2.9,�k�k��,6.3,�L
2014/02/08,08:00,2.5,4.4,4.8,4.5,4.6,2.4,2.6,2.9,�k�k��,5.6,�L
2014/02/08,08:10,2.5,4.4,4.8,4.4,4.6,2.4,2.6,2.9,�k�k��,6.1,�L
2014/02/08,08:20,2.5,4.4,4.8,4.4,4.6,2.4,2.6,2.9,�k�k��,5.4,�L
2014/02/08,08:30,2.5,4.4,4.8,4.4,4.6,2.4,2.6,2.9,�k��,6.0,�L
2014/02/08,08:40,2.5,4.4,4.8,4.4,4.6,2.4,2.6,2.9,�k�k��,6.1,�L
2014/02/08,08:50,2.5,4.4,4.8,4.4,4.6,2.4,2.6,2.9,�k��,5.1,�L
2014/02/08,09:00,2.5,4.4,4.8,4.4,4.6,2.4,2.6,2.9,�k��,5.8,�L
2014/02/08,09:10,2.5,4.4,4.8,4.4,4.6,2.4,2.6,2.9,�k�k��,5.3,�L
2014/02/08,09:20,2.5,4.4,4.8,4.4,4.6,2.4,2.6,2.9,�k��,6.3,�L
2014/02/08,09:30,2.5,4.4,4.8,4.4,4.6,2.4,2.6,2.9,�k��,5.7,�L
2014/02/08,09:40,2.5,4.4,4.8,4.4,4.6,2.4,2.6,2.8,�k��,6.3,�L
2014/02/08,09:50,2.5,4.3,4.8,4.4,4.6,2.4,2.6,2.8,�k��,6.5,�L
2014/02/08,10:00,2.5,4.3,4.8,4.4,4.5,2.4,2.6,2.8,�k��,5.3,�L
2014/02/08,10:10,2.5,4.3,4.7,4.4,4.5,2.4,2.6,2.8,�k��,6.6,�L
2014/02/08,10:20,2.5,4.3,4.7,4.4,4.5,2.3,2.6,2.8,�k��,5.3,�L
2014/02/08,10:30,2.5,4.3,4.7,4.3,4.5,2.3,2.5,2.8,�k��,6.3,�L
2014/02/08,10:40,2.5,4.3,4.7,4.3,4.4,2.3,2.5,2.8,�k��,5.6,�L
2014/02/08,10:50,2.4,4.2,4.6,4.3,4.4,2.3,2.5,2.8,�k��,6.5,�L
2014/02/08,11:00,2.4,4.2,4.6,4.3,4.4,2.3,2.5,2.8,�k��,5.0,�L
2014/02/08,11:10,2.4,4.2,4.6,4.3,4.4,2.3,2.5,2.8,�k��,7.2,�L
2014/02/08,11:20,2.4,4.2,4.6,4.2,4.3,2.3,2.5,2.8,�k�k��,6.5,�L
2014/02/08,11:30,2.4,4.1,4.5,4.2,4.3,2.3,2.5,2.8,�k�k��,6.6,�L
2014/02/08,11:40,2.4,4.1,4.5,4.2,4.3,2.3,2.5,2.8,�k��,6.1,�L
2014/02/08,11:50,2.4,4.1,4.5,4.2,4.3,2.3,2.5,2.8,�k��,6.5,�L
2014/02/08,12:00,2.4,4.1,4.4,4.2,4.2,2.3,2.5,2.8,�k�k��,8.2,�L
2014/02/08,12:10,2.4,4.1,4.4,4.1,4.2,2.3,2.5,2.8,�k�k��,9.3,�L
2014/02/08,12:20,2.4,4.0,4.4,4.1,4.2,2.2,2.5,2.8,�k�k��,8.5,�L
2014/02/08,12:30,2.4,4.0,4.4,4.1,4.1,2.2,2.5,2.8,�k�k��,7.9,�L
2014/02/08,12:40,2.3,4.0,4.3,4.1,4.1,2.2,2.5,2.7,�k�k��,8.8,�L
2014/02/08,12:50,2.3,4.0,4.3,4.1,4.1,2.2,2.5,2.7,�k�k��,7.9,�L
2014/02/08,13:00,2.3,3.9,4.3,4.1,4.1,2.2,2.4,2.7,�k�k��,8.2,�L
2014/02/08,13:10,2.3,3.9,4.3,4.0,4.1,2.2,2.4,2.7,�k�k��,8.8,�L
2014/02/08,13:20,2.3,3.9,4.3,4.0,4.1,2.2,2.4,2.7,�k�k��,8.8,�L
2014/02/08,13:30,2.3,3.9,4.3,4.0,4.0,2.2,2.4,2.7,�k�k��,7.2,�L
2014/02/08,13:40,2.3,3.9,4.2,4.0,4.0,2.2,2.4,2.7,�k�k��,8.8,�L
2014/02/08,13:50,2.3,3.9,4.2,4.0,4.0,2.2,2.4,2.7,�k�k��,8.2,�L
2014/02/08,14:00,2.3,3.8,4.2,4.0,4.0,2.2,2.4,2.7,�k�k��,8.2,�L
2014/02/08,14:10,2.3,3.8,4.2,3.9,3.9,2.2,2.4,2.7,�k�k��,7.9,�L
2014/02/08,14:20,2.3,3.8,4.1,3.9,3.9,2.2,2.4,2.7,�k�k��,9.3,�L
2014/02/08,14:30,2.2,3.8,4.1,3.9,3.9,2.1,2.4,2.7,�k�k��,8.8,�L
2014/02/08,14:40,2.2,3.7,4.1,3.9,3.9,2.1,2.4,2.7,�k�k��,8.6,�L
2014/02/08,14:50,2.2,3.7,4.0,3.9,3.8,2.1,2.4,2.7,�k�k��,8.2,�L
2014/02/08,15:00,2.2,3.7,4.0,3.8,3.8,2.1,2.4,2.7,�k�k��,7.5,�L
2014/02/08,15:10,2.2,3.7,4.0,3.8,3.8,2.1,2.4,2.6,�k�k��,7.5,�L
2014/02/08,15:20,2.2,3.7,4.0,3.8,3.8,2.1,2.4,2.6,�k�k��,7.8,�L
2014/02/08,15:30,2.2,3.6,3.9,3.8,3.7,2.1,2.4,2.6,�k�k��,7.1,�L
2014/02/08,15:40,2.2,3.6,3.9,3.8,3.7,2.1,2.3,2.6,�k�k��,7.4,�L
2014/02/08,15:50,2.2,3.6,3.9,3.8,3.7,2.1,2.3,2.6,�k�k��,7.7,�L
2014/02/08,16:00,2.1,3.6,3.9,3.7,3.7,2.1,2.3,2.6,�k�k��,7.1,�L
2014/02/08,16:10,2.1,3.5,3.8,3.7,3.6,2.0,2.3,2.6,�k�k��,7.1,�L
2014/02/08,16:20,2.1,3.5,3.7,3.6,3.6,2.0,2.3,2.6,�k�k��,7.5,�L
2014/02/08,16:30,2.1,3.5,3.7,3.6,3.5,2.0,2.3,2.6,�k�k��,7.7,�L
2014/02/08,16:40,2.1,3.4,3.7,3.6,3.5,2.0,2.3,2.6,�k,7.4,�L
2014/02/08,16:50,2.1,3.4,3.7,3.6,3.5,2.0,2.3,2.6,�k,8.2,�L
2014/02/08,17:00,2.1,3.4,3.6,3.6,3.4,2.0,2.3,2.6,�k,7.7,�L
2014/02/08,17:10,2.0,3.4,3.6,3.5,3.4,2.0,2.3,2.5,�k,7.2,�L
2014/02/08,17:20,2.0,3.3,3.6,3.5,3.4,2.0,2.3,2.5,�k,7.2,�L
2014/02/08,17:30,2.0,3.3,3.5,3.5,3.3,2.0,2.3,2.5,�k,6.8,�L
2014/02/08,17:40,2.0,3.2,3.5,3.4,3.3,1.9,2.2,2.5,�k,6.5,�L
2014/02/08,17:50,2.0,3.2,3.4,3.4,3.2,1.9,2.2,2.5,�k,7.4,�L
2014/02/08,18:00,2.0,3.2,3.4,3.4,3.2,1.9,2.2,2.5,�k,6.3,�L
2014/02/08,18:10,2.0,3.2,3.4,3.4,3.2,1.9,2.2,2.5,�k�k��,9.6,�L
2014/02/08,18:20,1.9,3.1,3.3,3.3,3.1,1.9,2.2,2.5,�k��,10.7,�L
2014/02/08,18:30,1.9,3.1,3.3,3.3,3.1,1.9,2.2,2.5,�k��,17.1,�L
2014/02/08,18:40,1.9,3.1,3.3,3.3,3.1,1.9,2.2,2.5,�k��,16.0,�L
2014/02/08,18:50,1.9,3.1,3.3,3.3,3.1,1.9,2.2,2.4,�k��,16.5,�L
2014/02/08,19:00,1.9,3.1,3.2,3.3,3.0,1.9,2.2,2.4,�k��,15.5,�L
2014/02/08,19:10,1.9,3.0,3.2,3.3,3.0,1.8,2.1,2.4,�k��,14.6,�L
2014/02/08,19:20,1.9,3.0,3.2,3.2,3.0,1.8,2.1,2.4,�k��,14.6,�L
2014/02/08,19:30,1.9,3.0,3.2,3.2,3.0,1.8,2.1,2.4,�k�k��,16.8,�L
2014/02/08,19:40,1.9,3.0,3.1,3.2,3.0,1.8,2.1,2.4,�k��,16.8,�L
2014/02/08,19:50,1.9,3.0,3.1,3.2,2.9,1.8,2.1,2.4,�k�k��,15.9,�L
2014/02/08,20:00,1.8,3.0,3.1,3.2,2.9,1.8,2.1,2.4,�k��,16.2,�L
2014/02/08,20:10,1.8,2.9,3.1,3.2,2.9,1.8,2.1,2.4,�k�k��,16.0,�L
2014/02/08,20:20,1.8,2.9,3.1,3.1,2.9,1.8,2.1,2.4,�k��,16.9,�L
2014/02/08,20:30,1.8,2.9,3.1,3.1,2.9,1.8,2.1,2.4,�k�k��,17.9,�L
2014/02/08,20:40,1.8,2.9,3.0,3.1,2.9,1.8,2.1,2.4,�k��,16.8,�L
2014/02/08,20:50,1.8,2.9,3.0,3.1,2.8,1.8,2.1,2.4,�k��,17.7,�L
2014/02/08,21:00,1.8,2.9,3.0,3.1,2.8,1.8,2.1,2.4,�k��,17.3,�L
2014/02/08,21:10,1.8,2.9,3.0,3.1,2.8,1.8,2.1,2.4,�k�k��,16.8,�L
2014/02/08,21:20,1.8,2.9,3.0,3.1,2.8,1.8,2.1,2.4,�k�k��,17.3,�L
2014/02/08,21:30,1.8,2.8,3.0,3.1,2.8,1.8,2.1,2.4,�k�k��,16.2,�L
2014/02/08,21:40,1.8,2.8,3.0,3.1,2.8,1.8,2.1,2.4,-,CALM,�L
2014/02/08,21:50,1.8,2.8,3.0,3.1,2.8,1.8,2.1,2.4,�k�k��,17.5,�L
2014/02/08,22:00,1.8,2.8,3.0,3.1,2.8,1.8,2.1,2.4,�k��,17.4,�L
2014/02/08,22:10,1.8,2.8,3.0,3.1,2.8,1.8,2.1,2.4,�k��,17.7,�L
2014/02/08,22:20,1.8,2.8,3.0,3.1,2.8,1.8,2.1,2.4,�k�k��,17.0,�L
2014/02/08,22:30,1.8,2.8,2.9,3.1,2.7,1.8,2.1,2.4,�k�k��,17.1,�L
2014/02/08,22:40,1.8,2.8,2.9,3.1,2.7,1.7,2.1,2.4,�k�k��,16.5,�L
2014/02/08,22:50,1.8,2.8,2.9,3.0,2.7,1.7,2.1,2.4,�k�k��,17.9,�L
2014/02/08,23:00,1.8,2.8,2.9,3.0,2.7,1.7,2.1,2.4,�k��,18.5,�L
2014/02/08,23:10,1.8,2.8,2.8,3.0,2.6,1.7,2.1,2.4,�k�k��,15.4,�L
2014/02/08,23:20,1.8,2.7,2.8,3.0,2.6,1.7,2.0,2.4,�k�k��,17.9,�L
2014/02/08,23:30,1.8,2.7,2.8,3.0,2.6,1.7,2.0,2.4,�k�k��,16.5,�L
2014/02/08,23:40,1.8,2.7,2.7,3.0,2.5,1.7,2.0,2.4,�k�k��,17.6,�L
2014/02/08,23:50,1.8,2.7,2.7,3.0,2.5,1.6,2.0,2.4,�k�k��,16.6,�L
